Stations météo

réclame
Mon MeteoGroup
Arjeplog, Suède (2124): Température de l'air & dewpoint: 18.01.2018 10:00:00 - 24.01.2018 10:00:00 (CET)Arjeplog, Suède (2124): Vitesse du vent & gusts: 18.01.2018 10:00:00 - 24.01.2018 10:00:00 (CET)Arjeplog, Suède (2124): Direction du vent: 18.01.2018 10:00:00 - 24.01.2018 10:00:00 (CET)Arjeplog, Suède (2124): reduced air pressure: 18.01.2018 10:00:00 - 24.01.2018 10:00:00 (CET)Arjeplog, Suède (2124): visibility: 18.01.2018 10:00:00 - 24.01.2018 10:00:00 (CET)Arjeplog, Suède (2124): Quantités de précipitations: 18.01.2018 10:00:00 - 24.01.2018 10:00:00 (CET)
Date & Time tt [°C] td [°C] ff [km/h] ff [knt] fx [km/h] fx [knt] dd ppp [hPa] vv [km] rr [mm]
24.01.2018 10:00:00 -15,4 -17,2 6 4 16 8 ENE 995,2 1,6 0,8
24.01.2018 09:00:00 -15,8 -17,6 8 4 17 9 ENE 996,1 1,0 0,9
24.01.2018 08:00:00 -16,0 -17,8 8 4 16 9 NE 996,7 1,4 0,8
24.01.2018 07:00:00 -16,2 -18,0 7 4 14 8 NE 997,5 1,5 0,7
24.01.2018 06:00:00 -16,1 -17,9 8 4 16 9 ENE 998,4 1,8 0,3
24.01.2018 05:00:00 -16,0 -17,8 7 4 14 7 NE 999,5 2,9 0,0
24.01.2018 04:00:00 -17,0 -18,6 4 2 8 4 NE 1001,0 6 0,1
24.01.2018 03:00:00 -18,6 -20,6 2 1 4 2 NNE 1002,6 10 0,0
24.01.2018 02:00:00 -19,4 -21,4 0 0 3 2 N 1004,0 1,9 0,3
24.01.2018 01:00:00 -20,9 -23,0 0 0 4 2 N 1005,3 2,4 0,1
24.01.2018 00:00:00 -22,8 -25,2 0 0 5 3 N 1007,1 4,8 0,0
23.01.2018 23:00:00 -23,0 -25,4 0 0 3 2 N 1008,6 6 0,0
23.01.2018 22:00:00 -23,9 -26,4 0 0 3 2 N 1009,5 9 0,0
23.01.2018 21:00:00 -24,2 -26,7 0 0 5 3 N 1010,1 13 0,0
23.01.2018 20:00:00 -25,2 -27,8 3 2 5 3 ENE 1010,7 21 0,0
23.01.2018 19:00:00 -25,1 -27,5 0 0 4 2 N 1011,9 - 0,0
23.01.2018 18:00:00 -26,4 -29,1 2 1 4 2 ENE 1012,5 12 0,0
23.01.2018 17:00:00 -27,9 -30,4 0 0 3 2 N 1013,4 8 0,0
23.01.2018 16:00:00 -29,1 -32,3 0 0 2 1 N 1013,6 14 0,0
23.01.2018 15:00:00 -27,5 -30,6 0 0 2 1 N 1013,9 6 0,0
23.01.2018 14:00:00 -25,5 -28,8 0 0 2 1 N 1014,1 7 0,0
23.01.2018 13:00:00 -23,7 -26,7 0 0 2 1 N 1014,3 17 0,0
23.01.2018 12:00:00 -23,2 -26,1 0 0 1 1 N 1015,0 11 0,0
23.01.2018 11:00:00 -24,3 -26,9 0 0 2 1 N 1015,4 - 0,0
23.01.2018 10:00:00 -25,0 -27,9 0 0 1 1 N 1015,7 - 0,0
23.01.2018 09:00:00 -23,7 -26,3 0 0 1 1 N 1015,5 - 0,0
23.01.2018 08:00:00 -23,6 -26,1 0 0 1 1 N 1015,9 - 0,0
23.01.2018 07:00:00 -24,5 -27,1 0 0 1 1 N 1016,2 7 0,0
23.01.2018 06:00:00 -25,5 -28,1 0 0 1 1 N 1016,6 4,0 0,0
23.01.2018 05:00:00 -24,7 -27,3 0 0 2 1 N 1016,7 3,2 0,0
23.01.2018 04:00:00 -23,9 -26,6 0 0 3 2 N 1016,8 2,5 0,0
23.01.2018 03:00:00 -23,3 -25,8 0 0 4 2 N 1016,8 7 0,0
23.01.2018 02:00:00 -23,8 -26,3 2 1 3 2 ENE 1017,1 7 0,0
23.01.2018 01:00:00 -24,2 -26,8 0 0 2 1 N 1017,5 4,8 0,0
23.01.2018 00:00:00 -24,4 -26,9 0 0 1 1 N 1017,7 7 0,0
22.01.2018 23:00:00 -25,2 -27,8 0 0 3 1 N 1018,0 8 0,1
22.01.2018 22:00:00 -25,9 -28,5 0 0 3 1 N 1018,0 7 0,1
22.01.2018 21:00:00 -26,4 -28,9 0 0 3 1 N 1018,1 6 0,0
22.01.2018 20:00:00 -27,4 -30,1 0 0 3 1 N 1018,3 8 0,0
22.01.2018 19:00:00 -27,6 -30,1 0 0 1 1 N 1018,1 3,7 0,0
22.01.2018 18:00:00 -29,7 -32,6 0 0 1 1 N 1018,2 8 0,0
22.01.2018 17:00:00 -29,0 -31,9 0 0 2 1 N 1017,9 11 0,0
22.01.2018 16:00:00 -27,6 -30,0 0 0 2 1 N 1017,5 1,1 0,0
22.01.2018 15:00:00 -27,0 -30,1 0 0 3 2 N 1017,3 12 0,0
22.01.2018 14:00:00 -24,6 -27,6 0 0 1 1 N 1016,8 6 0,0
22.01.2018 13:00:00 -23,7 -26,4 0 0 3 2 N 1016,7 11 0,0
22.01.2018 12:00:00 -24,5 -27,4 0 0 2 1 N 1016,9 - 0,0
22.01.2018 11:00:00 -23,2 -26,1 0 0 4 2 N 1016,7 2,2 0,0
22.01.2018 10:00:00 -21,5 -23,9 0 0 2 1 N 1016,4 2,2 0,0
22.01.2018 09:00:00 -22,0 -24,4 0 0 2 1 N 1016,2 4,2 0,0
22.01.2018 08:00:00 -23,3 -25,5 0 0 2 1 N 1016,1 4,7 0,1
22.01.2018 07:00:00 -24,5 -27,1 0 0 3 1 N 1016,4 3,1 0,0
22.01.2018 06:00:00 -25,5 -28,1 0 0 2 1 N 1016,7 3,0 0,0
22.01.2018 05:00:00 -26,9 -29,3 0 0 3 2 N 1016,8 3,0 0,0
22.01.2018 04:00:00 -27,9 -30,8 0 0 4 2 N 1017,0 2,3 0,1
22.01.2018 03:00:00 -26,9 -29,7 3 2 4 2 E 1017,0 2,4 0,0
22.01.2018 02:00:00 -27,4 -30,3 3 1 4 2 ESE 1017,2 2,0 0,1
22.01.2018 01:00:00 -27,2 -29,7 3 2 5 3 E 1017,2 2,2 0,0
22.01.2018 00:00:00 -28,2 -30,8 3 1 4 2 E 1017,4 2,4 0,0
21.01.2018 23:00:00 -28,4 -31,0 0 0 5 3 N 1017,5 3,6 0,0
21.01.2018 22:00:00 -28,0 -30,9 4 2 5 3 E 1017,1 7 0,0
21.01.2018 21:00:00 -27,3 -30,2 3 2 4 2 E 1017,1 19 0,1
21.01.2018 20:00:00 -25,6 -28,0 4 2 5 3 E 1016,6 10 0,0
21.01.2018 19:00:00 -25,6 -27,9 2 1 5 3 E 1016,6 20 0,0
21.01.2018 18:00:00 -24,8 -27,2 0 0 3 2 N 1016,5 21 0,0
21.01.2018 17:00:00 -23,6 -26,1 0 0 4 2 N 1016,3 14 0,0
21.01.2018 16:00:00 -22,1 -24,5 0 0 3 2 N 1015,7 7 0,0
21.01.2018 15:00:00 -19,8 -22,2 0 0 5 3 N 1015,3 2,5 0,0
21.01.2018 14:00:00 -18,2 -20,4 0 0 5 3 N 1014,9 1,4 0,0
21.01.2018 13:00:00 -14,1 -16,6 0 0 3 2 N 1014,3 2,9 0,0
21.01.2018 12:00:00 -13,9 -15,9 0 0 4 2 N 1014,3 2,9 0,1
21.01.2018 11:00:00 -14,9 -16,9 0 0 2 1 N 1014,2 1,7 0,0
21.01.2018 10:00:00 -15,0 -16,7 0 0 3 2 N 1014,1 1,8 0,0
21.01.2018 09:00:00 -15,8 -17,5 0 0 3 1 N 1014,0 2,7 0,0
21.01.2018 08:00:00 -15,5 -17,4 0 0 3 2 N 1013,4 2,4 0,0
21.01.2018 07:00:00 -14,6 -16,4 0 0 2 1 N 1013,3 1,9 0,0
21.01.2018 06:00:00 -14,0 -15,8 0 0 4 2 N 1013,2 2,6 0,0
21.01.2018 05:00:00 -13,8 -15,6 0 0 5 3 N 1013,0 7 0,0
21.01.2018 04:00:00 -13,9 -15,7 0 0 6 3 N 1012,8 7 0,0
21.01.2018 03:00:00 -13,7 -15,5 0 0 4 2 N 1012,9 6 0,1
21.01.2018 02:00:00 -13,7 -15,4 0 0 3 2 N 1012,8 4,6 0,1
21.01.2018 01:00:00 -13,8 -15,5 0 0 4 2 N 1012,8 7 0,0
21.01.2018 00:00:00 -13,8 -15,4 2 1 5 3 NNE 1012,6 6 0,1
20.01.2018 23:00:00 -13,8 -15,4 3 1 6 4 NNE 1012,5 5 0,0
20.01.2018 22:00:00 -14,1 -15,8 2 1 7 4 NE 1012,5 6 0,0
20.01.2018 21:00:00 -13,7 -15,5 3 2 10 6 NE 1012,3 7 0,1
20.01.2018 20:00:00 -13,5 -15,2 4 2 10 5 ENE 1012,3 12 0,0
20.01.2018 19:00:00 -13,5 -15,2 4 2 10 6 ENE 1012,0 9 0,0
20.01.2018 18:00:00 -13,4 -15,1 5 3 10 6 ENE 1011,8 6 0,0
20.01.2018 17:00:00 -13,4 -15,1 4 2 8 5 NE 1011,6 7 0,0
20.01.2018 16:00:00 -13,4 -15,1 5 3 9 5 ENE 1011,4 3,5 0,1
20.01.2018 15:00:00 -13,2 -14,9 3 2 10 5 ENE 1011,3 5 0,0
20.01.2018 14:00:00 -13,2 -14,9 6 3 11 6 ENE 1011,2 5 0,0
20.01.2018 13:00:00 -13,3 -15,0 5 3 10 6 NE 1011,0 5 0,0
20.01.2018 12:00:00 -13,4 -15,1 5 3 10 5 NE 1011,0 8 0,0
20.01.2018 11:00:00 -13,5 -15,2 3 2 6 4 NE 1011,2 4,7 0,2
20.01.2018 10:00:00 -13,6 -15,3 4 2 6 3 NE 1011,2 4,9 0,1
20.01.2018 09:00:00 -13,7 -15,3 3 2 9 5 NE 1010,8 4,2 0,0
20.01.2018 08:00:00 -14,0 -15,7 4 2 7 4 NE 1010,3 5 0,0
20.01.2018 07:00:00 -14,2 -15,7 4 2 7 4 ENE 1010,2 4,3 0,3
20.01.2018 06:00:00 -14,4 -15,9 3 1 6 4 NE 1010,0 3,1 0,1
20.01.2018 05:00:00 -14,7 -16,4 4 2 7 4 NE 1010,0 3,2 0,1
20.01.2018 04:00:00 -14,9 -16,6 3 1 6 4 ENE 1009,8 3,2 0,1
20.01.2018 03:00:00 -15,1 -16,9 5 3 7 4 ENE 1009,8 3,8 0,2
20.01.2018 02:00:00 -15,2 -16,9 3 2 6 3 ENE 1009,7 4,1 0,1
20.01.2018 01:00:00 -15,3 -17,1 3 1 5 3 NE 1009,5 4,3 0,1
20.01.2018 00:00:00 -15,3 -17,1 2 1 4 2 ENE 1009,1 4,6 0,0
19.01.2018 23:00:00 -15,5 -17,2 2 1 4 2 ENE 1008,9 4,5 0,1
19.01.2018 22:00:00 -15,9 -17,7 0 0 2 1 N 1008,9 1,0 0,1
19.01.2018 21:00:00 -15,9 -17,7 0 0 4 2 N 1008,7 1,4 0,1
19.01.2018 20:00:00 -16,1 -17,9 0 0 4 2 N 1008,3 2,1 0,0
19.01.2018 19:00:00 -16,6 -18,5 2 1 4 2 NE 1008,0 9 0,0
19.01.2018 18:00:00 -16,1 -17,9 2 1 5 3 NE 1007,9 4,7 0,0
19.01.2018 17:00:00 -16,4 -18,2 3 1 6 3 ENE 1007,8 2,5 0,0
19.01.2018 16:00:00 -16,8 -18,7 3 2 5 3 NE 1007,5 6 0,0
19.01.2018 15:00:00 -16,9 -18,5 3 2 5 3 NE 1007,1 9 0,0
19.01.2018 14:00:00 -16,3 -18,2 3 2 5 3 NE 1006,8 8 0,0
19.01.2018 13:00:00 -14,6 -16,7 0 0 3 2 N 1006,4 3,2 0,1
19.01.2018 12:00:00 -14,2 -16,0 0 0 3 2 N 1006,2 1,6 0,2
19.01.2018 11:00:00 -14,6 -16,3 0 0 4 2 N 1006,1 1,6 0,2
19.01.2018 10:00:00 -14,7 -16,4 0 0 5 3 N 1005,8 2,0 0,0
19.01.2018 09:00:00 -15,1 -16,9 0 0 5 3 N 1005,3 1,8 0,2
19.01.2018 08:00:00 -15,6 -17,4 3 1 5 3 N 1005,2 1,6 0,2
19.01.2018 07:00:00 -16,3 -18,1 0 0 4 2 N 1004,9 0,9 0,2
19.01.2018 06:00:00 -17,0 -18,8 0 0 3 2 N 1004,7 1,0 0,0
19.01.2018 05:00:00 -16,1 -18,0 2 1 5 3 N 1004,5 1,5 0,1
19.01.2018 04:00:00 -16,7 -18,5 0 0 4 2 N 1004,5 1,0 0,1
19.01.2018 03:00:00 -16,5 -18,4 0 0 3 1 N 1004,4 1,6 0,1
19.01.2018 02:00:00 -15,4 -17,5 0 0 4 2 N 1004,0 3,3 0,1
19.01.2018 01:00:00 -14,9 -16,7 0 0 5 3 N 1004,1 2,4 0,1
19.01.2018 00:00:00 -15,7 -17,4 3 1 5 3 NNE 1004,3 2,5 0,0
18.01.2018 23:00:00 -15,3 -17,1 3 2 5 3 NNW 1004,2 1,5 0,0
18.01.2018 22:00:00 -14,5 -16,3 0 0 4 2 N 1004,1 0,9 0,1
18.01.2018 21:00:00 -14,5 -16,2 0 0 6 3 N 1004,1 2,0 0,0
18.01.2018 20:00:00 -14,2 -16,0 0 0 4 2 N 1003,8 1,7 0,1
18.01.2018 19:00:00 -14,6 -16,3 0 0 5 3 N 1003,5 2,2 0,1
18.01.2018 18:00:00 -14,8 -16,6 0 0 3 2 N 1003,4 2,0 0,0
18.01.2018 17:00:00 -14,9 -16,6 3 1 11 6 NNE 1003,5 6 0,0
18.01.2018 16:00:00 -14,9 -16,7 8 4 11 6 ENE 1003,4 12 0,0
18.01.2018 15:00:00 -13,9 -15,7 7 4 14 8 ENE 1003,3 21 0,0
18.01.2018 14:00:00 -13,4 -15,4 6 4 13 7 NE 1003,1 13 0,0
18.01.2018 13:00:00 -13,0 -15,1 6 3 13 7 NE 1003,0 19 0,0
18.01.2018 12:00:00 -13,4 -15,4 6 4 13 7 ENE 1002,8 16 0,1
18.01.2018 11:00:00 -13,6 -15,3 5 3 14 7 E 1002,8 7 0,1
18.01.2018 10:00:00 -14,3 -15,7 6 4 13 7 E 1002,9 14 0,0

tt = Température de l'air
td = dewpoint
ff = Vitesse du vent
fx = gusts
dd = Direction du vent
ppp = reduced air pressure
vv = visibility
rr = Quantités de précipitations

stations d'obs. à proximité